Regional Weather Roundup
Issued by NWS

Home | Current Version | Previous Version | Graphics & Text | Print | Product List | Glossary Off
Versions: 1 2 3 4 5 6 7 8 9 10 11 12 13 14 15 16 17 18 19 20 21 22 23 24 25 26 27 28 29 30 31 32 33 34 35 36 37 38 39 40 41 42 43 44 45 46 47 48 49 50

000
ASUS43 KMKX 230513
RWRWI

WISCONSIN REGIONAL WEATHER ROUNDUP
NATIONAL WEATHER SERVICE MILWAUKEE/SULLIVAN WI
1200 AM CDT SAT MAY 23 2015

NOTE: "FAIR" INDICATES FEW OR NO CLOUDS BELOW 12,000 FEET WITH NO
SIGNIFICANT WEATHER AND/OR OBSTRUCTIONS TO VISIBILITY.

WIZ001-002-006>008-014>016-023>028-230600-
NORTHWEST WISCONSIN

CITY           SKY/WX    TMP DP  RH WIND       PRES   REMARKS
SUPERIOR ARPT  CLEAR     36  35  96 CALM      30.19F
ASHLAND        CLEAR     52  35  52 S7        30.18S
HAYWARD        CLEAR     47  38  71 CALM      30.21S
SIREN          CLEAR     47  40  75 CALM      30.20F
CUMBERLAND     CLEAR     50  41  71 CALM      30.22S
RICE LAKE      CLEAR     49  44  85 CALM      30.23S
CHETEK         CLEAR     48  44  86 CALM      30.22S
LADYSMITH      CLEAR     47  43  87 CALM      30.24F
EAU CLAIRE     PTCLDY    47  40  76 CALM      30.21S
MENOMONIE      PTCLDY    52  42  68 CALM      30.22S
NEW RICHMOND   PTCLDY    55  40  55 SE5       30.21F
OSCEOLA        PTCLDY    49  42  77 CALM      30.23S
$$

WIZ003>005-009-010-017-018-230600-
NORTH CENTRAL WISCONSIN

CITY           SKY/WX    TMP DP  RH WIND       PRES   REMARKS
MANITOWISH WTR CLEAR     41  37  84 CALM      30.22S
ARBOR VITAE    CLEAR     44  35  69 CALM      30.23S
WOODRUFF       CLEAR     44  35  69 CALM      30.23S
RHINELANDER    CLEAR     39  33  79 MISG      30.24S
EAGLE RIVER    CLEAR     39  31  73 CALM      30.23S
LAND O LAKES   CLEAR     36  32  86 CALM      30.23S
PHILLIPS       CLEAR     44  40  85 CALM      30.22S
TOMAHAWK       CLEAR     40  35  81 CALM      30.24S
MEDFORD        CLEAR     46  37  71 CALM      30.24S
MERRILL        CLEAR     40  38  91 NE3       30.25S
$$

WIZ029-030-035-036-043>047-230600-
CENTRAL WISCONSIN

CITY           SKY/WX    TMP DP  RH WIND       PRES   REMARKS
WAUSAU         CLEAR     50  41  71 E5        30.22S
MOSINEE        PTCLDY    52  36  54 CALM      30.25S
MARSHFIELD     PTCLDY    52  40  63 CALM      30.24S
STEVENS POINT  PTCLDY    44  37  76 E5        30.25S
WAUPACA        PTCLDY    52  35  52 S3        30.26S
WAUTOMA        NOT AVBL
WISC RAPIDS    PTCLDY    47  37  68 SE5       30.25S
CAMP DOUGLAS   NOT AVBL
$$

WIZ011>013-019>022-031-037>040-048>050-230600-
NORTHEAST WISCONSIN

CITY           SKY/WX    TMP DP  RH WIND       PRES   REMARKS
ANTIGO         CLEAR     44  37  74 CALM      30.25S
SHAWANO        CLEAR     50  37  61 CALM      30.26S
OCONTO         CLEAR     40  35  81 CALM      30.26F
STURGEON BAY   CLEAR     46  23  39 S6        30.29F
GREEN BAY      CLEAR     50  29  44 S5        30.26S
MANITOWOC      NOT AVBL
APPLETON       PTCLDY    50  32  50 S8        30.27R
CLINTONVILLE   PTCLDY    52  36  54 S3        30.25S
OSHKOSH        MOCLDY    46  29  51 S7        30.26S
$$

WIZ032>034-041-042-053>061-230600-
SOUTHWEST WISCONSIN

CITY           SKY/WX    TMP DP  RH WIND       PRES   REMARKS
LA CROSSE      MOCLDY    55  44  66 SE3       30.22S
SPARTA         MOCLDY    45  40  83 CALM      30.24S
VIROQUA        MOCLDY    56  37  48 E6        30.23S
BOSCOBEL       CLOUDY    52  44  74 CALM      30.23S
PRAIRIE DU CHI CLOUDY    55  45  70 E3        30.22S
PLATTEVILLE    MOCLDY    61  40  45 SE6       30.24S
$$

WIZ056-057-062-063-064-067-068-230600-
SOUTH CENTRAL WISCONSIN

CITY           SKY/WX    TMP DP  RH WIND       PRES   REMARKS
REEDSBURG      CLOUDY    52  45  77 CALM      30.24S
BARABOO/DELLS  CLOUDY    55  39  55 SE6       30.24S
LONE ROCK      NOT AVBL
MINERAL POINT  MOCLDY    63  34  34 SE5       30.24S
MADISON        CLOUDY    56  34  43 S9        30.27S
MIDDLETON      CLOUDY    58  29  32 SE8       30.27S
WATERTOWN      CLOUDY    49  28  44 S3        30.28R
MONROE         CLOUDY    55  37  50 SE7       30.27R
JANESVILLE     CLOUDY    52  32  46 SE5       30.28S
$$

WIZ051-052-058>065-066-070>072-230600-
SOUTHEAST WISCONSIN

CITY           SKY/WX    TMP DP  RH WIND       PRES   REMARKS
MILWAUKEE      MOCLDY    48  28  46 S6        30.29S
WAUKESHA       CLOUDY    46  27  46 S5        30.30S
MILWAUKEE/TIMM MOCLDY    46  27  46 S3        30.29S
RACINE         CLOUDY    48  31  51 S6        30.30F
BURLINGTON     CLOUDY    46  29  52 CALM      30.29S
KENOSHA        CLOUDY    48  32  53 S5        30.29S
FOND DU LAC    MOCLDY    48  26  42 S7        30.27S
SHEBOYGAN      PTCLDY    43  28  55 SW3       30.27F
WEST BEND      MOCLDY    45  27  49 CALM      30.28S
JUNEAU         MOCLDY    48  30  49 SE5       30.28S
$$

LSZ147-162-230600-
LAKE SUPERIOR

STATION/POSITION TIME  TEMP    WIND        PRES    WAVE
                       AIR SEA DIR/SP/G            HT/PER
                 (UTC) (F)     (DEG/KT/KT) (MB)    (FT/S)
W MID LAKE BUOY  0350   40 36   30/  4/  4   N/A     0
DEVILS ISLAND    0400   42      70/  2/  2   N/A
PORT WING        0400   41     190/  4/  5   N/A
SAXON HARBOR     0440   54     200/  5/  7   N/A
$$

LMZ867-665-643>646-230600-
LAKE MICHIGAN

STATION/POSITION TIME  TEMP    WIND        PRES    WAVE
                       AIR SEA DIR/SP/G            HT/PER
                 (UTC) (F)     (DEG/KT/KT) (MB)    (FT/S)
CHAMBERS ISLAND  0400   41     130/  2/  3   N/A
N MID LAKE BUOY  0350   41 36  220/  6/  8   N/A     0
NORTHPORT PIER   0400   46     190/  2/  5   N/A
SISTER BAY       0402   43        CALM       N/A
KEWAUNEE LAKESHO 0400   46     170/  7/  8   N/A
SHEBOYGAN LAKESH 0400   49     210/  8/ 10   N/A
PORT WASHINGTON  0400   49     260/  4/  5   N/A
ATWATER BUOY     0400   48 45  180/  6/  8   N/A
MILWAUKEE LAKESH 0400   51     210/  4/  4   N/A
S MID LAKE BUOY  0350   43 38  120/  8/  8   N/A     0
KENOSHA   LAKESH 0400   49     170/  8/  9   N/A
$$

TC  - TEMPERATURE IN CELSIUS
VSB - VISIBILITY IN STATUTE MILES
WCI - WIND CHILL INDEX
HX  - HEAT INDEX



USA.gov is the U.S. government's official web portal to all federal, state and local government web resources and services.